This is the latest recevied weather packets stored in our database for station/object KG0HG. If no packets are shown the sender has not sent any weather packets the latest 10 day(s).
| Time | Temp. | Humidity | Pressure | Rain* | Wind** | Luminosity | Snow |
|---|---|---|---|---|---|---|---|
| 1777758531 | 17.78° C | 29% | 1019.4 hPa | 0 mm | - | 54 W/m² | - |
| 1777758228 | 17.78° C | 29% | 1019.5 hPa | 0 mm | - | 51 W/m² | - |
| 1777757926 | 17.78° C | 30% | 1019.3 hPa | 0 mm | - | 55 W/m² | - |
| 1777757623 | 17.78° C | 30% | 1019.4 hPa | 0 mm | - | 53 W/m² | - |
| 1777757321 | 16.67° C | 29% | 1019.5 hPa | 0 mm | - | 55 W/m² | - |
| 1777757020 | 16.67° C | 29% | 1019.5 hPa | 0 mm | - | 54 W/m² | - |
| 1777756717 | 17.22° C | 29% | 1019.5 hPa | 0 mm | - | 61 W/m² | - |
| 1777756412 | 17.22° C | 31% | 1019.5 hPa | 0 mm | - | 89 W/m² | - |
| 1777756109 | 17.22° C | 29% | 1019.7 hPa | 0 mm | - | 59 W/m² | - |
| 1777755807 | 16.67° C | 30% | 1019.7 hPa | 0 mm | - | 59 W/m² | - |
| 1777755504 | 16.11° C | 30% | 1019.9 hPa | 0 mm | - | 72 W/m² | - |
| 1777755200 | 17.78° C | 30% | 1019.8 hPa | 0 mm | - | 69 W/m² | - |
| 1777754897 | 17.78° C | 31% | 1020 hPa | 0 mm | - | 63 W/m² | - |
| 1777754594 | 16.67° C | 32% | 1020.2 hPa | 0 mm | - | 59 W/m² | - |
| 1777754291 | 16.67° C | 29% | 1020 hPa | 0 mm | - | 62 W/m² | - |
| 1777753989 | 15.56° C | 32% | 1020.1 hPa | 0 mm | - | 60 W/m² | - |
| 1777753689 | 16.67° C | 32% | 1020.2 hPa | 0 mm | - | 62 W/m² | - |
| 1777753387 | 16.67° C | 29% | 1020.2 hPa | 0 mm | - | 62 W/m² | - |
| 1777753085 | 16.67° C | 30% | 1020.4 hPa | 0 mm | - | 66 W/m² | - |
| 1777752780 | 16.11° C | 31% | 1020.1 hPa | 0 mm | - | 63 W/m² | - |
| 1777752477 | 15.56° C | 32% | 1020.2 hPa | 0 mm | - | 660 W/m² | - |
| 1777752173 | 16.11° C | 31% | 1020.6 hPa | 0 mm | - | 679 W/m² | - |
| 1777751872 | 16.67° C | 31% | 1020.6 hPa | 0 mm | - | 119 W/m² | - |
| 1777751568 | 16.11° C | 34% | 1020.5 hPa | 0 mm | - | 63 W/m² | - |
| 1777751264 | 16.67° C | 31% | 1020.8 hPa | 0 mm | - | 63 W/m² | - |
* Rain latest hour (hover to see other rain measurements)
** Current wind speed in m/s (hover to see current wind gust speed)